^^
Datos históricos de la estación: Murcia-Puente Tocinos
Diario Informe para Enero 1, 2019 Unidades:  Métrico    Inglés   Ambas
Diario Semanal Mensual Anual Configurable
  Máximo: Mínimo: Media:
Temperatura: 19.7 °C 3.6 °C 10.4 °C
Punto de rocio: 8.2 °C 0.1 °C 2.8 °C
Humedad: 84% 31% 62%
Velocidad viento: 11.3km/h 0.0km/h 6.9km/h
Racha viento: 14.5km/h - -
Viento- - SSW
Presión: 1030.5 hPa 1026.9 hPa -
Precipitación: 0.0 mm    
Historical Graphs
 
 
Tabla de datos para Enero 1, 2019
Hora Temperatura Punto de rocio Presión Viento Velocidad viento Racha viento Humedad Intensidad lluvia(por hora) Nubes
00:00 8.6 °C 2.6 °C 1029.2 hPa SSW 8.0 km/h 11.3 km/h 66% 0.0 mm CLR
00:05 8.4 °C 2.7 °C 1029.2 hPa SSW 8.0 km/h 12.9 km/h 67% 0.0 mm CLR
00:09 8.4 °C 2.6 °C 1029.2 hPa South 8.7 km/h 11.1 km/h 67% 0.0 mm CLR
00:15 8.4 °C 2.6 °C 1029.2 hPa SSE 8.7 km/h 9.5 km/h 67% 0.0 mm CLR
00:19 8.3 °C 2.5 °C 1029.1 hPa SSW 8.7 km/h 11.1 km/h 67% 0.0 mm CLR
00:25 8.3 °C 2.5 °C 1029.1 hPa SSW 9.7 km/h 11.3 km/h 67% 0.0 mm CLR
00:30 8.4 °C 2.4 °C 1029.1 hPa SSW 8.0 km/h 12.9 km/h 66% 0.0 mm CLR
00:35 8.4 °C 2.4 °C 1029.1 hPa SSW 8.0 km/h 12.9 km/h 66% 0.0 mm CLR
00:40 8.4 °C 2.4 °C 1029.1 hPa SSW 8.0 km/h 11.3 km/h 66% 0.0 mm CLR
00:45 8.2 °C 2.7 °C 1029.1 hPa SSW 8.4 km/h 11.1 km/h 68% 0.0 mm CLR
00:50 8.0 °C 2.4 °C 1029.1 hPa SSW 8.4 km/h 13.0 km/h 68% 0.0 mm CLR
00:55 7.9 °C 2.3 °C 1029.1 hPa SSW 8.0 km/h 11.3 km/h 68% 0.0 mm CLR
01:00 7.8 °C 2.3 °C 1029.1 hPa SSW 8.0 km/h 9.7 km/h 68% 0.0 mm CLR
01:05 7.8 °C 2.1 °C 1029.1 hPa South 8.0 km/h 11.3 km/h 67% 0.0 mm CLR
01:09 7.7 °C 1.9 °C 1029.1 hPa South 7.6 km/h 9.5 km/h 67% 0.0 mm CLR
01:15 7.7 °C 1.9 °C 1029.1 hPa South 8.0 km/h 9.7 km/h 67% 0.0 mm CLR
01:20 7.6 °C 2.1 °C 1029.1 hPa South 8.0 km/h 9.7 km/h 68% 0.0 mm CLR
01:25 7.4 °C 1.9 °C 1029.1 hPa SSE 6.4 km/h 9.3 km/h 68% 0.0 mm CLR
01:29 7.3 °C 2.0 °C 1029.1 hPa SSE 6.4 km/h 7.4 km/h 69% 0.0 mm CLR
01:35 7.2 °C 2.1 °C 1029.1 hPa SSE 6.4 km/h 11.1 km/h 70% 0.0 mm CLR
01:40 6.9 °C 2.0 °C 1029.1 hPa SSE 6.9 km/h 11.1 km/h 71% 0.0 mm CLR
01:45 6.8 °C 1.9 °C 1029.1 hPa South 8.0 km/h 11.3 km/h 71% 0.0 mm CLR
01:50 6.8 °C 2.1 °C 1029.0 hPa South 8.4 km/h 9.5 km/h 72% 0.0 mm CLR
01:55 6.7 °C 2.0 °C 1029.0 hPa South 8.0 km/h 11.3 km/h 72% 0.0 mm CLR
02:00 6.8 °C 2.1 °C 1029.0 hPa South 8.0 km/h 11.3 km/h 72% 0.0 mm CLR
02:05 6.8 °C 2.1 °C 1029.0 hPa South 8.4 km/h 11.1 km/h 72% 0.0 mm CLR
02:09 6.7 °C 2.0 °C 1029.0 hPa SSE 8.4 km/h 13.0 km/h 72% 0.0 mm CLR
02:15 6.7 °C 2.0 °C 1029.0 hPa South 8.4 km/h 11.1 km/h 72% 0.0 mm CLR
02:20 6.6 °C 2.1 °C 1028.9 hPa SSE 6.9 km/h 9.3 km/h 73% 0.0 mm CLR
02:25 6.6 °C 2.1 °C 1028.9 hPa South 6.9 km/h 8.4 km/h 73% 0.0 mm CLR
02:30 6.5 °C 2.0 °C 1028.9 hPa South 6.9 km/h 11.1 km/h 73% 0.0 mm CLR
02:35 6.4 °C 1.9 °C 1029.1 hPa South 8.0 km/h 11.3 km/h 73% 0.0 mm CLR
02:40 6.4 °C 2.1 °C 1029.1 hPa South 7.6 km/h 11.1 km/h 74% 0.0 mm CLR
02:45 6.4 °C 1.9 °C 1029.1 hPa South 8.0 km/h 11.3 km/h 73% 0.0 mm CLR
02:50 6.3 °C 2.0 °C 1029.2 hPa SSW 7.6 km/h 10.0 km/h 74% 0.0 mm CLR
02:55 6.3 °C 2.0 °C 1029.2 hPa South 8.0 km/h 14.5 km/h 74% 0.0 mm CLR
03:00 6.3 °C 1.8 °C 1029.2 hPa South 8.0 km/h 14.5 km/h 73% 0.0 mm CLR
03:05 6.3 °C 1.8 °C 1029.2 hPa South 8.4 km/h 13.0 km/h 73% 0.0 mm CLR
03:10 6.3 °C 1.8 °C 1029.2 hPa South 9.7 km/h 11.3 km/h 73% 0.0 mm CLR
03:15 6.2 °C 1.7 °C 1029.2 hPa South 9.7 km/h 11.3 km/h 73% 0.0 mm CLR
03:20 6.1 °C 1.6 °C 1029.2 hPa South 7.6 km/h 11.1 km/h 73% 0.0 mm CLR
03:25 6.0 °C 1.5 °C 1029.2 hPa SSW 7.6 km/h 11.1 km/h 73% 0.0 mm CLR
03:30 6.0 °C 1.7 °C 1029.2 hPa SSW 8.4 km/h 11.1 km/h 74% 0.0 mm CLR
03:35 6.0 °C 1.7 °C 1029.3 hPa SSW 8.4 km/h 11.1 km/h 74% 0.0 mm CLR
03:40 6.0 °C 1.7 °C 1029.3 hPa South 8.4 km/h 11.1 km/h 74% 0.0 mm CLR
03:45 6.0 °C 1.5 °C 1029.3 hPa SW 8.4 km/h 11.1 km/h 73% 0.0 mm CLR
03:50 5.9 °C 1.4 °C 1029.3 hPa SSW 8.0 km/h 11.3 km/h 73% 0.0 mm CLR
03:55 5.9 °C 1.4 °C 1029.3 hPa SSW 8.0 km/h 12.9 km/h 73% 0.0 mm CLR
04:00 5.9 °C 1.4 °C 1029.3 hPa SW 8.0 km/h 11.3 km/h 73% 0.0 mm CLR
04:05 5.9 °C 1.4 °C 1029.2 hPa SSW 8.4 km/h 7.4 km/h 73% 0.0 mm CLR
04:10 5.9 °C 1.4 °C 1029.2 hPa SSW 8.0 km/h 9.7 km/h 73% 0.0 mm CLR
04:15 5.9 °C 1.4 °C 1029.2 hPa SSW 8.0 km/h 9.7 km/h 73% 0.0 mm CLR
04:20 5.8 °C 1.3 °C 1029.1 hPa South 8.0 km/h 11.3 km/h 73% 0.0 mm CLR
04:25 5.7 °C 1.4 °C 1029.1 hPa SSE 6.4 km/h 9.3 km/h 74% 0.0 mm CLR
04:30 5.7 °C 1.4 °C 1029.1 hPa South 6.9 km/h 9.3 km/h 74% 0.0 mm CLR
04:35 5.6 °C 1.3 °C 1028.9 hPa SSW 6.9 km/h 7.4 km/h 74% 0.0 mm CLR
04:39 5.6 °C 1.3 °C 1028.9 hPa South 5.8 km/h 10.0 km/h 74% 0.0 mm CLR
04:45 5.5 °C 1.2 °C 1028.9 hPa South 4.8 km/h 9.7 km/h 74% 0.0 mm CLR
04:49 5.4 °C 1.1 °C 1028.8 hPa SSW 6.4 km/h 11.1 km/h 74% 0.0 mm CLR
04:55 5.4 °C 1.1 °C 1028.8 hPa South 8.0 km/h 11.3 km/h 74% 0.0 mm CLR
05:00 5.4 °C 1.1 °C 1028.8 hPa SSW 8.0 km/h 9.7 km/h 74% 0.0 mm CLR
05:05 5.4 °C 0.9 °C 1028.7 hPa SW 6.9 km/h 9.3 km/h 73% 0.0 mm CLR
05:10 5.6 °C 1.1 °C 1028.7 hPa SW 6.9 km/h 7.4 km/h 73% 0.0 mm CLR
05:15 5.7 °C 1.0 °C 1028.7 hPa SW 8.0 km/h 9.7 km/h 72% 0.0 mm CLR
05:19 5.7 °C 1.1 °C 1028.6 hPa SW 5.8 km/h 7.4 km/h 72% 0.0 mm CLR
05:25 5.7 °C 1.1 °C 1028.6 hPa SW 5.8 km/h 8.4 km/h 72% 0.0 mm CLR
05:29 5.7 °C 1.1 °C 1028.6 hPa South 5.8 km/h 7.4 km/h 72% 0.0 mm CLR
05:35 5.6 °C 1.1 °C 1028.5 hPa South 5.8 km/h 7.4 km/h 73% 0.0 mm CLR
05:40 5.5 °C 1.1 °C 1028.5 hPa South 4.8 km/h 9.7 km/h 73% 0.0 mm CLR
05:45 5.4 °C 0.9 °C 1028.5 hPa South 5.8 km/h 9.3 km/h 73% 0.0 mm CLR
05:50 5.3 °C 1.1 °C 1028.6 hPa South 8.0 km/h 11.3 km/h 74% 0.0 mm CLR
05:55 5.2 °C 0.9 °C 1028.6 hPa SSE 6.4 km/h 9.3 km/h 74% 0.0 mm CLR
06:00 4.9 °C 0.9 °C 1028.6 hPa South 8.0 km/h 9.7 km/h 75% 0.0 mm CLR
06:05 4.5 °C 0.6 °C 1028.5 hPa SSE 6.9 km/h 9.3 km/h 76% 0.0 mm CLR
06:09 4.2 °C 0.5 °C 1028.5 hPa South 8.4 km/h 11.1 km/h 77% 0.0 mm CLR
06:15 4.1 °C 0.6 °C 1028.5 hPa SSE 8.0 km/h 12.9 km/h 78% 0.0 mm CLR
06:20 3.8 °C 0.5 °C 1028.6 hPa SSE 9.7 km/h 14.5 km/h 79% 0.0 mm CLR
06:25 3.7 °C 0.6 °C 1028.6 hPa South 8.7 km/h 13.7 km/h 80% 0.0 mm CLR
06:30 3.6 °C 0.4 °C 1028.6 hPa South 9.5 km/h 11.1 km/h 80% 0.0 mm CLR
06:35 3.6 °C 0.4 °C 1028.6 hPa South 9.7 km/h 12.9 km/h 80% 0.0 mm CLR
06:40 3.7 °C 0.6 °C 1028.6 hPa South 8.7 km/h 9.5 km/h 80% 0.0 mm CLR
06:45 3.8 °C 0.7 °C 1028.6 hPa South 9.7 km/h 9.7 km/h 80% 0.0 mm CLR
06:50 3.9 °C 0.6 °C 1028.7 hPa SSW 8.0 km/h 11.3 km/h 79% 0.0 mm CLR
06:55 4.2 °C 0.7 °C 1028.7 hPa SSW 8.0 km/h 11.3 km/h 78% 0.0 mm CLR
07:00 4.3 °C 0.6 °C 1028.7 hPa SSW 8.0 km/h 11.3 km/h 77% 0.0 mm CLR
07:05 4.4 °C 0.6 °C 1028.8 hPa SW 7.6 km/h 9.3 km/h 76% 0.0 mm CLR
07:10 4.4 °C 0.6 °C 1028.8 hPa SSW 8.0 km/h 11.3 km/h 76% 0.0 mm CLR
07:15 4.5 °C 0.6 °C 1028.8 hPa SSW 8.0 km/h 9.7 km/h 76% 0.0 mm CLR
07:20 4.6 °C 0.6 °C 1028.9 hPa South 6.9 km/h 11.1 km/h 75% 0.0 mm CLR
07:25 4.6 °C 0.6 °C 1028.9 hPa South 6.9 km/h 9.3 km/h 75% 0.0 mm CLR
07:29 4.6 °C 0.6 °C 1028.9 hPa South 8.4 km/h 11.1 km/h 75% 0.0 mm CLR
07:35 4.5 °C 0.4 °C 1029.0 hPa South 8.4 km/h 11.1 km/h 75% 0.0 mm CLR
07:39 4.5 °C 0.4 °C 1029.0 hPa South 7.6 km/h 9.3 km/h 75% 0.0 mm CLR
07:45 4.6 °C 0.6 °C 1029.0 hPa South 7.6 km/h 9.3 km/h 75% 0.0 mm CLR
07:50 4.6 °C 0.6 °C 1029.2 hPa South 8.0 km/h 11.3 km/h 75% 0.0 mm CLR
07:55 4.5 °C 0.4 °C 1029.2 hPa South 7.6 km/h 7.4 km/h 75% 0.0 mm CLR
08:00 4.5 °C 0.4 °C 1029.2 hPa South 8.0 km/h 11.3 km/h 75% 0.0 mm CLR
08:05 4.4 °C 0.6 °C 1029.4 hPa South 7.6 km/h 7.4 km/h 76% 0.0 mm CLR
08:10 4.3 °C 0.4 °C 1029.4 hPa SSW 5.8 km/h 7.4 km/h 76% 0.0 mm CLR
08:15 4.3 °C 0.4 °C 1029.4 hPa SSW 5.8 km/h 9.3 km/h 76% 0.0 mm CLR
08:20 4.3 °C 0.4 °C 1029.4 hPa SSW 8.0 km/h 11.3 km/h 76% 0.0 mm CLR
08:25 4.4 °C 0.6 °C 1029.4 hPa SSW 8.0 km/h 14.5 km/h 76% 0.0 mm CLR
08:30 4.4 °C 0.3 °C 1029.4 hPa South 7.6 km/h 13.0 km/h 75% 0.0 mm CLR
08:35 4.4 °C 0.3 °C 1029.7 hPa SSE 7.6 km/h 13.0 km/h 75% 0.0 mm CLR
08:40 4.3 °C 0.3 °C 1029.7 hPa South 8.4 km/h 13.0 km/h 75% 0.0 mm CLR
08:45 4.2 °C 0.3 °C 1029.7 hPa South 8.0 km/h 14.5 km/h 76% 0.0 mm CLR
08:50 4.2 °C 0.3 °C 1029.8 hPa SSW 9.5 km/h 11.1 km/h 76% 0.0 mm CLR
08:55 4.3 °C 0.3 °C 1029.8 hPa SSW 9.7 km/h 9.7 km/h 75% 0.0 mm CLR
09:00 4.4 °C 0.2 °C 1029.8 hPa SSW 8.0 km/h 12.9 km/h 74% 0.0 mm CLR
09:05 4.6 °C 0.2 °C 1029.9 hPa SSW 6.9 km/h 9.3 km/h 73% 0.0 mm CLR
09:10 4.7 °C 0.3 °C 1029.9 hPa SSW 7.6 km/h 7.4 km/h 73% 0.0 mm CLR
09:15 4.8 °C 0.2 °C 1029.9 hPa SSW 7.6 km/h 7.6 km/h 72% 0.0 mm CLR
09:20 4.9 °C 0.1 °C 1030.1 hPa SSW 5.8 km/h 10.0 km/h 71% 0.0 mm CLR
09:25 5.1 °C 0.3 °C 1030.1 hPa SSW 4.8 km/h 12.9 km/h 71% 0.0 mm CLR
09:30 5.2 °C 0.2 °C 1030.1 hPa SSW 8.0 km/h 11.3 km/h 70% 0.0 mm CLR
09:35 5.4 °C 0.2 °C 1030.2 hPa SSW 6.9 km/h 9.3 km/h 69% 0.0 mm CLR
09:40 5.7 °C 0.4 °C 1030.2 hPa SSE 5.8 km/h 7.6 km/h 69% 0.0 mm CLR
09:45 5.8 °C 0.3 °C 1030.2 hPa SSW 4.8 km/h 9.7 km/h 68% 0.0 mm CLR
09:50 5.8 °C 0.4 °C 1030.3 hPa South 8.0 km/h 11.3 km/h 68% 0.0 mm CLR
09:55 5.8 °C 0.2 °C 1030.3 hPa SSW 8.0 km/h 12.9 km/h 67% 0.0 mm CLR
10:00 5.9 °C 0.3 °C 1030.3 hPa SSW 8.0 km/h 12.9 km/h 67% 0.0 mm CLR
10:05 6.2 °C 0.3 °C 1030.3 hPa SSW 7.6 km/h 9.3 km/h 66% 0.0 mm CLR
10:09 6.3 °C 0.4 °C 1030.3 hPa SW 6.9 km/h 13.0 km/h 66% 0.0 mm CLR
10:15 6.4 °C 0.5 °C 1030.3 hPa SW 8.0 km/h 14.5 km/h 66% 0.0 mm CLR
10:20 6.7 °C 0.4 °C 1030.3 hPa SW 8.0 km/h 11.3 km/h 64% 0.0 mm CLR
10:25 7.0 °C 0.2 °C 1030.3 hPa SW 8.4 km/h 11.1 km/h 62% 0.0 mm CLR
10:30 7.3 °C 0.3 °C 1030.3 hPa SSW 7.6 km/h 11.1 km/h 61% 0.0 mm CLR
10:35 7.5 °C 0.2 °C 1030.4 hPa WSW 7.6 km/h 9.3 km/h 60% 0.0 mm CLR
10:40 7.7 °C 0.4 °C 1030.4 hPa SW 8.0 km/h 8.0 km/h 60% 0.0 mm CLR
10:45 8.1 °C 0.6 °C 1030.4 hPa SW 6.4 km/h 10.0 km/h 59% 0.0 mm CLR
10:50 8.1 °C 0.3 °C 1030.4 hPa SSW 4.8 km/h 11.3 km/h 58% 0.0 mm CLR
10:55 8.2 °C 0.4 °C 1030.4 hPa SW 5.8 km/h 9.3 km/h 58% 0.0 mm CLR
11:00 8.4 °C 0.4 °C 1030.4 hPa SSW 8.0 km/h 11.3 km/h 57% 0.0 mm CLR
11:05 8.8 °C 0.5 °C 1030.5 hPa South 6.9 km/h 9.3 km/h 56% 0.0 mm CLR
11:10 9.1 °C 0.5 °C 1030.5 hPa SSW 6.4 km/h 9.3 km/h 55% 0.0 mm CLR
11:15 9.3 °C 0.7 °C 1030.5 hPa SSW 8.0 km/h 9.7 km/h 55% 0.0 mm CLR
11:20 9.4 °C 0.8 °C 1030.4 hPa SSW 8.0 km/h 11.3 km/h 55% 0.0 mm CLR
11:25 9.6 °C 1.0 °C 1030.4 hPa West 6.9 km/h 8.4 km/h 55% 0.0 mm CLR
11:30 9.7 °C 1.1 °C 1030.4 hPa South 7.6 km/h 7.4 km/h 55% 0.0 mm CLR
11:35 9.8 °C 0.9 °C 1030.3 hPa WSW 7.6 km/h 11.1 km/h 54% 0.0 mm CLR
11:40 10.0 °C 1.1 °C 1030.3 hPa SW 6.9 km/h 9.5 km/h 54% 0.0 mm CLR
11:45 10.2 °C 1.3 °C 1030.3 hPa SW 8.0 km/h 9.7 km/h 54% 0.0 mm CLR
11:50 10.6 °C 1.4 °C 1030.1 hPa South 5.0 km/h 7.4 km/h 53% 0.0 mm CLR
11:55 10.8 °C 1.3 °C 1030.1 hPa SSW 5.0 km/h 11.1 km/h 52% 0.0 mm CLR
12:00 10.9 °C 1.4 °C 1030.1 hPa SSW 8.0 km/h 11.3 km/h 52% 0.0 mm CLR
12:05 11.2 °C 1.4 °C 1029.9 hPa SW 6.4 km/h 8.4 km/h 51% 0.0 mm CLR
12:10 11.4 °C 1.1 °C 1029.9 hPa SSW 6.4 km/h 7.4 km/h 49% 0.0 mm CLR
12:15 11.7 °C 1.1 °C 1029.9 hPa SW 8.0 km/h 11.3 km/h 48% 0.0 mm CLR
12:20 11.9 °C 0.9 °C 1029.6 hPa SSW 4.8 km/h 12.9 km/h 47% 0.0 mm CLR
12:25 12.1 °C 1.1 °C 1029.6 hPa SSW 5.8 km/h 9.3 km/h 47% 0.0 mm CLR
12:30 12.3 °C 0.7 °C 1029.6 hPa SSE 7.6 km/h 11.1 km/h 45% 0.0 mm CLR
12:35 12.6 °C 0.9 °C 1029.2 hPa SSW 7.6 km/h 11.1 km/h 45% 0.0 mm CLR
12:40 12.7 °C 1.1 °C 1029.2 hPa South 8.7 km/h 8.4 km/h 45% 0.0 mm CLR
12:45 12.9 °C 1.2 °C 1029.2 hPa WSW 8.7 km/h 9.3 km/h 45% 0.0 mm CLR
12:50 13.3 °C 1.9 °C 1029.0 hPa SW 6.9 km/h 9.3 km/h 46% 0.0 mm CLR
12:55 13.5 °C 1.8 °C 1029.0 hPa SSW 8.0 km/h 11.3 km/h 45% 0.0 mm CLR
13:00 13.8 °C 1.7 °C 1029.0 hPa South 8.0 km/h 14.5 km/h 44% 0.0 mm CLR
13:05 14.0 °C 1.6 °C 1028.8 hPa SSW 6.4 km/h 11.1 km/h 43% 0.0 mm CLR
13:10 14.1 °C 1.4 °C 1028.8 hPa SSW 8.0 km/h 14.5 km/h 42% 0.0 mm CLR
13:15 14.2 °C 1.4 °C 1028.8 hPa SW 7.6 km/h 9.3 km/h 42% 0.0 mm CLR
13:20 14.5 °C 1.1 °C 1028.6 hPa SW 7.6 km/h 13.0 km/h 40% 0.0 mm CLR
13:25 14.7 °C 0.9 °C 1028.6 hPa SSW 7.6 km/h 11.1 km/h 39% 0.0 mm CLR
13:30 14.9 °C 0.7 °C 1028.6 hPa SSW 8.0 km/h 12.9 km/h 38% 0.0 mm CLR
13:35 15.2 °C 0.9 °C 1028.4 hPa SSW 8.0 km/h 14.5 km/h 38% 0.0 mm CLR
13:40 15.4 °C 1.1 °C 1028.4 hPa SW 8.4 km/h 13.0 km/h 38% 0.0 mm CLR
13:45 15.6 °C 1.3 °C 1028.4 hPa SW 8.4 km/h 9.3 km/h 38% 0.0 mm CLR
13:49 15.9 °C 1.2 °C 1028.2 hPa SW 6.4 km/h 10.3 km/h 37% 0.0 mm CLR
13:55 15.9 °C 1.2 °C 1028.2 hPa WSW 6.4 km/h 8.7 km/h 37% 0.0 mm CLR
14:00 16.1 °C 1.4 °C 1028.2 hPa SW 8.0 km/h 12.9 km/h 37% 0.0 mm CLR
14:05 16.2 °C 1.1 °C 1027.8 hPa SW 8.0 km/h 12.9 km/h 36% 0.0 mm CLR
14:10 16.3 °C 1.2 °C 1027.8 hPa SW 8.0 km/h 11.3 km/h 36% 0.0 mm CLR
14:15 16.5 °C 0.9 °C 1027.8 hPa SW 8.4 km/h 11.1 km/h 35% 0.0 mm CLR
14:20 16.6 °C 1.1 °C 1027.6 hPa SSW 8.0 km/h 11.3 km/h 35% 0.0 mm CLR
14:25 16.8 °C 0.4 °C 1027.6 hPa SW 6.9 km/h 7.4 km/h 33% 0.0 mm CLR
14:30 17.1 °C 0.6 °C 1027.6 hPa SSW 8.0 km/h 9.7 km/h 33% 0.0 mm CLR
14:35 17.2 °C 0.3 °C 1027.6 hPa West 6.4 km/h 9.3 km/h 32% 0.0 mm CLR
14:40 17.3 °C 0.4 °C 1027.6 hPa SW 5.8 km/h 9.3 km/h 32% 0.0 mm CLR
14:45 17.4 °C 0.5 °C 1027.6 hPa WSW 4.8 km/h 9.7 km/h 32% 0.0 mm CLR
14:50 17.6 °C 0.7 °C 1027.4 hPa SSW 5.8 km/h 5.6 km/h 32% 0.0 mm CLR
14:55 17.8 °C 0.9 °C 1027.4 hPa SSW 5.8 km/h 9.3 km/h 32% 0.0 mm CLR
15:00 17.8 °C 0.9 °C 1027.4 hPa SSW 4.8 km/h 9.7 km/h 32% 0.0 mm CLR
15:05 18.0 °C 1.1 °C 1027.3 hPa West 5.8 km/h 7.4 km/h 32% 0.0 mm CLR
15:10 18.2 °C 0.8 °C 1027.3 hPa WSW 4.7 km/h 9.3 km/h 31% 0.0 mm CLR
15:15 18.2 °C 0.8 °C 1027.3 hPa WSW 3.2 km/h 11.3 km/h 31% 0.0 mm CLR
15:20 18.2 °C 0.8 °C 1027.2 hPa SW 6.4 km/h 11.1 km/h 31% 0.0 mm CLR
15:25 18.2 °C 0.8 °C 1027.2 hPa SW 6.4 km/h 7.4 km/h 31% 0.0 mm CLR
15:30 18.3 °C 1.3 °C 1027.2 hPa SW 6.9 km/h 9.3 km/h 32% 0.0 mm CLR
15:35 18.4 °C 1.4 °C 1027.0 hPa SW 8.0 km/h 11.3 km/h 32% 0.0 mm CLR
15:40 18.4 °C 1.4 °C 1027.0 hPa SW 8.0 km/h 9.7 km/h 32% 0.0 mm CLR
15:45 18.6 °C 1.6 °C 1027.0 hPa SW 6.4 km/h 9.3 km/h 32% 0.0 mm CLR
15:50 18.7 °C 1.7 °C 1026.9 hPa SW 5.8 km/h 7.6 km/h 32% 0.0 mm CLR
15:55 18.8 °C 2.2 °C 1026.9 hPa SW 5.8 km/h 7.4 km/h 33% 0.0 mm CLR
16:00 18.9 °C 2.3 °C 1026.9 hPa SSW 8.0 km/h 9.7 km/h 33% 0.0 mm CLR
16:05 19.0 °C 2.3 °C 1027.1 hPa South 6.4 km/h 3.7 km/h 33% 0.0 mm CLR
16:10 19.2 °C 2.1 °C 1027.1 hPa SW 3.9 km/h 7.4 km/h 32% 0.0 mm CLR
16:15 19.2 °C 2.5 °C 1027.1 hPa SW 3.9 km/h 7.4 km/h 33% 0.0 mm CLR
16:20 19.3 °C 2.6 °C 1027.1 hPa SW 5.0 km/h 9.3 km/h 33% 0.0 mm CLR
16:25 19.2 °C 2.5 °C 1027.1 hPa SW 5.0 km/h 9.3 km/h 33% 0.0 mm CLR
16:30 19.3 °C 3.1 °C 1027.1 hPa SW 8.0 km/h 9.7 km/h 34% 0.0 mm CLR
16:35 19.3 °C 3.1 °C 1027.0 hPa SW 6.4 km/h 7.4 km/h 34% 0.0 mm CLR
16:40 19.4 °C 3.1 °C 1027.0 hPa SW 4.8 km/h 9.7 km/h 34% 0.0 mm CLR
16:45 19.4 °C 3.1 °C 1027.0 hPa SW 5.8 km/h 9.3 km/h 34% 0.0 mm CLR
16:50 19.4 °C 3.1 °C 1026.9 hPa SSW 8.0 km/h 9.7 km/h 34% 0.0 mm CLR
16:55 19.5 °C 3.6 °C 1026.9 hPa SSW 6.4 km/h 3.9 km/h 35% 0.0 mm CLR
17:00 19.6 °C 3.7 °C 1026.9 hPa South 3.2 km/h 4.8 km/h 35% 0.0 mm CLR
17:05 19.7 °C 3.8 °C 1027.1 hPa SSW 3.9 km/h 3.7 km/h 35% 0.0 mm CLR
17:10 19.7 °C 3.8 °C 1027.1 hPa South 3.2 km/h 3.7 km/h 35% 0.0 mm CLR
17:15 19.6 °C 3.7 °C 1027.1 hPa South 3.2 km/h 3.9 km/h 35% 0.0 mm CLR
17:20 19.6 °C 3.7 °C 1027.1 hPa South 2.9 km/h 3.9 km/h 35% 0.0 mm CLR
17:25 19.4 °C 4.3 °C 1027.1 hPa ESE 2.9 km/h 5.8 km/h 37% 0.0 mm CLR
17:30 19.1 °C 4.4 °C 1027.1 hPa ESE 3.9 km/h 7.4 km/h 38% 0.0 mm CLR
17:35 18.8 °C 4.6 °C 1027.2 hPa ESE 3.9 km/h 5.6 km/h 39% 0.0 mm CLR
17:40 18.6 °C 4.7 °C 1027.2 hPa ESE 4.7 km/h 5.6 km/h 40% 0.0 mm CLR
17:45 18.5 °C 4.6 °C 1027.2 hPa ESE 4.7 km/h 3.9 km/h 40% 0.0 mm CLR
17:50 18.4 °C 4.9 °C 1027.3 hPa ESE 3.2 km/h 8.0 km/h 41% 0.0 mm CLR
17:55 18.2 °C 5.1 °C 1027.3 hPa ESE 3.2 km/h 3.7 km/h 42% 0.0 mm CLR
18:00 17.9 °C 4.8 °C 1027.3 hPa ESE 3.2 km/h 4.8 km/h 42% 0.0 mm CLR
18:05 17.7 °C 4.9 °C 1027.4 hPa ESE 3.9 km/h   43% 0.0 mm CLR
18:10 17.6 °C 5.2 °C 1027.4 hPa Calm     44% 0.0 mm CLR
18:15 17.4 °C 5.0 °C 1027.4 hPa Calm     44% 0.0 mm CLR
18:20 17.3 °C 5.2 °C 1027.4 hPa Calm   6.4 km/h 45% 0.0 mm CLR
18:25 17.1 °C 5.7 °C 1027.4 hPa Calm   8.0 km/h 47% 0.0 mm CLR
18:30 16.9 °C 5.8 °C 1027.4 hPa WSW 4.8 km/h 8.0 km/h 48% 0.0 mm CLR
18:35 16.6 °C 5.8 °C 1027.6 hPa WSW 5.0 km/h 5.8 km/h 49% 0.0 mm CLR
18:40 16.3 °C 6.1 °C 1027.6 hPa SW 5.0 km/h 7.4 km/h 51% 0.0 mm CLR
18:45 16.1 °C 6.2 °C 1027.6 hPa WSW 5.0 km/h 7.4 km/h 52% 0.0 mm CLR
18:50 15.8 °C 6.2 °C 1027.6 hPa WSW 5.8 km/h 7.4 km/h 53% 0.0 mm CLR
18:55 15.6 °C 6.3 °C 1027.6 hPa West 5.8 km/h 5.6 km/h 54% 0.0 mm CLR
19:00 15.4 °C 6.1 °C 1027.6 hPa West 3.2 km/h 4.8 km/h 54% 0.0 mm CLR
19:05 15.3 °C 6.3 °C 1027.8 hPa West 3.2 km/h 3.2 km/h 55% 0.0 mm CLR
19:10 15.1 °C 6.4 °C 1027.8 hPa Calm   11.1 km/h 56% 0.0 mm CLR
19:15 15.1 °C 6.4 °C 1027.8 hPa Calm   5.6 km/h 56% 0.0 mm CLR
19:20 14.9 °C 6.4 °C 1028.0 hPa SSW 4.8 km/h 9.7 km/h 57% 0.0 mm CLR
19:25 14.7 °C 6.8 °C 1028.0 hPa SW 5.0 km/h 9.3 km/h 59% 0.0 mm CLR
19:30 14.6 °C 7.2 °C 1028.0 hPa SW 6.4 km/h 9.3 km/h 61% 0.0 mm CLR
19:35 14.4 °C 7.2 °C 1028.1 hPa SW 6.4 km/h 9.3 km/h 62% 0.0 mm CLR
19:40 14.2 °C 7.3 °C 1028.1 hPa SW 6.4 km/h 5.6 km/h 63% 0.0 mm CLR
19:45 14.1 °C 7.4 °C 1028.1 hPa SW 8.0 km/h 8.0 km/h 64% 0.0 mm CLR
19:50 14.0 °C 7.5 °C 1028.2 hPa SW 4.7 km/h 7.4 km/h 65% 0.0 mm CLR
19:55 13.9 °C 7.7 °C 1028.2 hPa SW 4.7 km/h 9.3 km/h 66% 0.0 mm CLR
20:00 13.8 °C 7.8 °C 1028.2 hPa SW 4.8 km/h 11.3 km/h 67% 0.0 mm CLR
20:05 13.7 °C 7.9 °C 1028.2 hPa SW 4.8 km/h 9.7 km/h 68% 0.0 mm CLR
20:10 13.7 °C 8.1 °C 1028.2 hPa SSW 8.0 km/h 9.7 km/h 69% 0.0 mm CLR
20:15 13.6 °C 8.0 °C 1028.2 hPa SSW 6.4 km/h 5.6 km/h 69% 0.0 mm CLR
20:20 13.4 °C 8.1 °C 1028.2 hPa SSW 5.0 km/h 7.4 km/h 70% 0.0 mm CLR
20:25 13.3 °C 8.2 °C 1028.2 hPa South 5.0 km/h 7.4 km/h 71% 0.0 mm CLR
20:30 13.1 °C 8.2 °C 1028.2 hPa South 4.8 km/h 9.7 km/h 72% 0.0 mm CLR
20:35 12.8 °C 8.1 °C 1028.2 hPa SSE 5.8 km/h 9.3 km/h 73% 0.0 mm CLR
20:40 12.6 °C 7.9 °C 1028.2 hPa SSE 8.0 km/h 9.7 km/h 73% 0.0 mm CLR
20:45 12.3 °C 8.0 °C 1028.2 hPa SSE 8.0 km/h 11.3 km/h 75% 0.0 mm CLR
20:50 11.9 °C 8.0 °C 1028.2 hPa SSE 6.9 km/h 13.0 km/h 77% 0.0 mm CLR
20:55 11.7 °C 8.0 °C 1028.2 hPa SSE 6.9 km/h 9.5 km/h 78% 0.0 mm CLR
21:00 11.5 °C 8.0 °C 1028.2 hPa SSE 8.0 km/h 12.9 km/h 79% 0.0 mm CLR
21:05 11.3 °C 7.8 °C 1028.2 hPa South 8.4 km/h 11.1 km/h 79% 0.0 mm CLR
21:10 11.2 °C 7.9 °C 1028.2 hPa SSE 9.7 km/h 14.5 km/h 80% 0.0 mm CLR
21:15 11.1 °C 7.8 °C 1028.2 hPa SSE 8.7 km/h 11.1 km/h 80% 0.0 mm CLR
21:20 11.0 °C 7.7 °C 1028.2 hPa SSE 11.3 km/h 14.5 km/h 80% 0.0 mm CLR
21:25 10.9 °C 7.6 °C 1028.2 hPa South 11.3 km/h 14.5 km/h 80% 0.0 mm CLR
21:30 10.9 °C 7.6 °C 1028.2 hPa South 9.7 km/h 11.3 km/h 80% 0.0 mm CLR
21:35 10.9 °C 7.8 °C 1028.2 hPa SSW 9.7 km/h 12.9 km/h 81% 0.0 mm CLR
21:40 10.8 °C 7.7 °C 1028.2 hPa SSW 8.4 km/h 11.1 km/h 81% 0.0 mm CLR
21:45 10.8 °C 7.7 °C 1028.2 hPa SSW 8.0 km/h 9.7 km/h 81% 0.0 mm CLR
21:50 10.7 °C 7.8 °C 1028.1 hPa South 8.0 km/h 9.7 km/h 82% 0.0 mm CLR
21:55 10.7 °C 7.8 °C 1028.1 hPa SW 6.9 km/h 7.4 km/h 82% 0.0 mm CLR
22:00 10.7 °C 7.9 °C 1028.1 hPa SSW 4.8 km/h 9.7 km/h 83% 0.0 mm CLR
22:05 10.7 °C 7.9 °C 1028.0 hPa South 5.8 km/h 7.4 km/h 83% 0.0 mm CLR
22:10 10.7 °C 7.9 °C 1028.0 hPa South 4.8 km/h 8.0 km/h 83% 0.0 mm CLR
22:15 10.6 °C 7.8 °C 1028.0 hPa SSE 5.8 km/h 5.6 km/h 83% 0.0 mm CLR
22:20 10.6 °C 7.8 °C 1027.9 hPa SSE 3.2 km/h 8.0 km/h 83% 0.0 mm CLR
22:25 10.4 °C 7.4 °C 1027.9 hPa SSE 4.7 km/h 9.3 km/h 82% 0.0 mm CLR
22:30 10.3 °C 7.3 °C 1027.9 hPa SSE 6.9 km/h 13.0 km/h 82% 0.0 mm CLR
22:35 10.4 °C 7.6 °C 1027.9 hPa South 6.9 km/h 10.0 km/h 83% 0.0 mm CLR
22:40 10.4 °C 7.6 °C 1027.9 hPa SSE 8.0 km/h 14.5 km/h 83% 0.0 mm CLR
22:45 10.4 °C 7.8 °C 1027.9 hPa SSE 7.6 km/h 11.1 km/h 84% 0.0 mm CLR
22:50 10.3 °C 7.7 °C 1027.8 hPa SSE 9.7 km/h 14.5 km/h 84% 0.0 mm CLR
22:55 10.2 °C 7.6 °C 1027.8 hPa SSE 9.5 km/h 11.1 km/h 84% 0.0 mm CLR
23:00 10.1 °C 7.5 °C 1027.8 hPa SSE 9.7 km/h 14.5 km/h 84% 0.0 mm CLR
23:05 9.8 °C 7.2 °C 1027.8 hPa South 9.5 km/h 11.1 km/h 84% 0.0 mm CLR
23:10 9.7 °C 6.9 °C 1027.8 hPa South 8.4 km/h 11.1 km/h 83% 0.0 mm CLR
23:15 9.5 °C 6.8 °C 1027.8 hPa SSW 8.4 km/h 13.0 km/h 83% 0.0 mm CLR
23:20 9.4 °C 6.7 °C 1027.7 hPa SSW 8.7 km/h 13.0 km/h 83% 0.0 mm CLR
23:25 9.4 °C 6.7 °C 1027.7 hPa South 8.7 km/h 13.0 km/h 83% 0.0 mm CLR
23:30 9.4 °C 6.5 °C 1027.7 hPa SSW 9.5 km/h 13.0 km/h 82% 0.0 mm CLR
23:35 9.4 °C 6.3 °C 1027.6 hPa SW 9.5 km/h 11.1 km/h 81% 0.0 mm CLR
23:40 9.4 °C 6.0 °C 1027.6 hPa SSW 9.7 km/h 11.3 km/h 79% 0.0 mm CLR
23:45 9.5 °C 5.8 °C 1027.6 hPa SW 8.7 km/h 11.1 km/h 78% 0.0 mm CLR
23:50 9.5 °C 5.7 °C 1027.7 hPa SSW 6.9 km/h 9.3 km/h 77% 0.0 mm CLR
23:55 9.5 °C 5.7 °C 1027.7 hPa SSW 8.0 km/h 11.3 km/h 77% 0.0 mm CLR
Murcia-Puente Tocinos, España
Compliments of Weather Underground - 2.75 mb

La estación de MeteoMurcia.com, publica sus datos en los siguientes proyectos:

Weather Underground PWS IMURCIAP2 Meteoclimatic www.awekas.at

W3Counter
Web Analytics